This demonstration page uses our WeatherBlox Daily Observations layout. Learn more.

Left ArrowRight Arrow

30.21309, -93.2044

Hourly Observations for May 16, 2015

Temp ( °F °C ) Dew Point ( °F °C ) Humidity (%) Winds ( mph kmh ) Pressure ( in mb ) Visibility ( mi km ) Precip ( " mm )
12:15 am 00:15 Clear 74 23.1 73 22.9 99 99 Calm 30.00 1016 7 11 0.00 0.00
12:35 am 00:35 Partly Cloudy 74 23.1 73 22.7 98 98 SE 3 6 30.00 1016 7 11 0.00 0.00
12:55 am 00:55 Partly Cloudy 74 23.5 74 23.1 98 98 E 6 9 30.00 1016 7 11 0.00 0.00
1:15 am 01:15 Clear 74 23.6 74 23.1 97 97 Calm 30.00 1016 7 11 0.00 0.00
1:35 am 01:35 Clear 74 23.6 73 23 96 96 Calm 29.97 1015 7 11 0.00 0.00
1:55 am 01:55 Clear 74 23.6 74 23.1 97 97 Calm 29.97 1015 7 11 0.00 0.00
2:15 am 02:15 Clear 74 23.6 74 23.1 97 97 Calm 29.97 1015 7 11 0.00 0.00
2:35 am 02:35 Clear 74 23.6 74 23.2 98 98 ESE 6 9 29.97 1015 7 11 0.00 0.00
2:55 am 02:55 Partly Cloudy 75 24 74 23.5 97 97 ESE 7 11 29.97 1015 7 11 0.00 0.00
3:15 am 03:15 Partly Cloudy 75 24.1 74 23.5 96 96 SE 6 9 29.97 1015 7 11 0.00 0.00
3:35 am 03:35 Partly Cloudy with Nearby Thunderstorms 75 24 74 23.4 96 96 SE 7 11 29.97 1015 7 11 0.00 0.00
3:55 am 03:55 Partly Cloudy 75 24.1 73 23 94 94 SE 6 9 29.97 1015 10 16 0.00 0.00
4:15 am 04:15 Partly Cloudy 75 23.7 73 22.6 94 94 ESE 6 9 29.97 1015 10 16 0.00 0.00
4:35 am 04:35 Mostly Cloudy 75 23.7 73 22.6 94 94 ESE 5 7 29.97 1015 10 16 0.00 0.00
4:55 am 04:55 Mostly Cloudy 75 23.7 73 22.7 94 94 ESE 5 7 29.97 1015 10 16 0.00 0.00
5:15 am 05:15 Mostly Cloudy 75 23.7 73 22.7 94 94 ESE 5 7 29.97 1015 10 16 0.00 0.00
6:00 am 06:00 Cloudy 75 24 73 23 94 94 ESE 5 7 29.97 1015 10 16 0.00 0.00
6:50 am 06:50 Mostly Cloudy 75 24 73 23 94 94 ESE 5 7 29.97 1015 10 16 0.00 0.00
7:50 am 07:50 Mostly Cloudy 77 25 75 24 94 94 SSE 7 11 30.00 1016 10 16 0.00 0.00
9:50 am 09:50 Mostly Cloudy 82 28 73 23 74 74 SSE 16 26 30.00 1016 10 16 0.00 0.00
10:50 am 10:50 Cloudy 84 29 73 23 70 70 SSE 17 28 30.00 1016 10 16 0.00 0.00
11:50 am 11:50 Mostly Cloudy 84 29 73 23 70 70 S 18 30 30.00 1016 10 16 0.00 0.00
12:50 pm 12:50 Mostly Cloudy 86 30 73 23 66 66 S 17 28 30.00 1016 10 16 0.00 0.00
1:50 pm 13:50 Mostly Cloudy 86 30 73 23 66 66 S 18 30 29.97 1015 10 16 0.00 0.00
9:50 pm 21:50 Cloudy 79 26 75 24 89 89 SSE 14 22 29.97 1015 10 16 0.00 0.00
10:15 pm 22:15 Cloudy 79 26.1 75 24.1 89 89 SSE 13 20 29.97 1015 7 11 0.00 0.00
10:35 pm 22:35 Cloudy 79 26.2 75 24 88 88 SSE 9 15 30.00 1016 7 11 0.00 0.00
10:55 pm 22:55 Cloudy 79 26.1 75 24 88 88 SSE 12 19 30.00 1016 7 11 0.00 0.00
11:15 pm 23:15 Cloudy 79 26.1 75 24 88 88 SSE 12 19 30.00 1016 7 11 0.00 0.00
11:35 pm 23:35 Cloudy 79 26.1 75 24 88 88 SSE 14 22 30.00 1016 7 11 0.00 0.00
11:55 pm 23:55 Cloudy 78 25.8 75 24 90 90 SSE 12 19 30.00 1016 7 11 0.00 0.00

Powered by AerisWeather